SCP
0 0 0 0 0 0 0 0 0 0 0 0 0 0 0 0 0 0 0 0 0 0 0 0 0 0 1 1 2 3 2 1 1 1 1 1 1 1
0 0 0 0 0 0 0 0 0 0 0 0 0 0 0 0 0 0 0 0 0 0 0 0 0 0 0 0 1 1 1 1 1 1 1 1 1 1
0 0 0 0 0 0 0 0 0 0 0 0 0 0 0 0 0 0 0 0 0 0 0 0 0 0 0 0 0 0 0 0 1 1 1 1 1 1
0 0 0 0 0 0 0 0 0 0 0 0 0 0 0 0 0 0 0 0 0 0 0 0 0 0 0 0 0 0 0 0 0 0 0 0 1 1
0 0 0 0 0 0 0 0 0 0 0 0 0 0 0 0 0 0 0 0 0 0 0 0 0 0 0 0 0 0 0 0 0 0 0 0 0 0
0 0 0 0 0 0 0 0 0 0 0 0 0 0 0 0 0 0 0 0 0 0 0 0 0 0 0 0 0 0 0 0 0 0 0 0 0 0
0 0 0 0 0 0 0 0 0 0 0 0 0 0 0 0 0 0 0 0 0 0 0 0 0 0 0 0 0 0 0 0 0 0 0 0 0 0
0 0 0 0 0 0 0 0 0 0 0 0 0 0 0 0 0 0 0 0 0 0 0 0 0 0 0 0 0 0 0 0 0 0 0 0 0 0
0 0 0 0 0 0 0 0 0 0 0 0 0 0 0 0 0 0 0 0 0 0 0 0 0 0 0 0 0 0 0 0 0 0 0 0 0 0
0 0 0 0 0 0 0 0 0 0 0 0 0 0 0 0 0 0 0 0 0 0 0 0 0 0 0 0 0 0 0 0 0 0 0 0 0 0
0 0 0 0 0 0 0 0 0 0 0 0 0 0 0 0 0 0 0 0 0 0 0 0 0 0 0 0 0 0 0 0 0 0 0 0 0 0
0 0 0 0 0 0 0 0 0 0 0 0 0 0 0 0 0 0 0 0 0 0 0 0 0 0 0 0 0 0 0 0 0 0 0 0 0 0
0 0 0 0 0 0 0 0 0 0 0 0 0 0 0 0 0 0 0 0 0 0 0 0 0 0 0 0 0 0 0 0 0 0 0 0 0 0
0 0 0 0 0 0 0 0 0 0 0 0 0 0 0 0 0 0 0 0 0 0 0 0 0 0 0 0 0 0 0 0 0 0 0 0 0 0
0 0 0 0 0 0 0 0 0 0 0 0 0 0 0 0 0 0 0 0 0 0 0 0 0 0 0 0 0 0 0 0 0 0 0 0 0 0
0 0 0 0 0 0 0 0 0 0 0 0 0 0 0 0 0 0 0 0 0 0 0 0 0 0 0 0 0 0 0 0 0 0 0 0 0 0
0 0 0 0 0 0 0 0 0 0 0 0 0 0 0 0 0 0 0 0 0 0 0 0 0 0 0 0 0 0 0 0 0 0 0 0 0 0
0 0 0 0 0 0 0 0 0 0 0 0 0 0 0 0 0 0 0 0 0 0 0 0 0 0 0 0 0 0 0 0 0 0 0 0 0 0
0 0 0 0 0 0 0 0 0 0 0 0 0 0 0 0 0 0 0 0 0 0 0 0 0 0 0 0 0 0 0 0 0 0 0 0 0 0
0 0 0 0 0 0 0 0 0 0 0 0 0 0 0 0 0 0 0 0 0 0 0 0 0 0 0 0 0 0 0 0 0 0 0 0 0 0
0 0 0 0 0 0 0 0 0 0 0 0 0 0 0 0 0 0 0 0 0 0 0 0 0 0 0 0 0 0 0 0 0 0 0 0 0 0
0 0 0 0 0 0 0 0 0 0 0 0 0 0 0 0 0 0 0 0 0 0 0 0 0 0 0 0 0 0 0 0 0 0 0 0 0 0
0 0 0 0 0 0 0 0 0 0 0 0 0 0 0 0 0 0 0 0 0 0 0 0 0 0 0 0 0 0 0 0 0 0 0 0 0 0
Wind_Speed
3 3 2 2 2 2 2 2 2 2 3 4 3 4 4 3 5 3 4 7 9 10 11 12 12 13 14 15 16 18 19 20 21 22 22 23 23 24
3 4 3 3 3 2 2 2 3 3 3 3 3 4 4 4 5 4 5 8 9 10 11 12 12 12 12 13 14 15 17 19 20 20 21 22 22 22
4 4 5 4 3 3 2 2 2 3 3 4 3 3 3 5 5 4 5 5 5 10 11 11 11 11 12 12 13 14 15 17 19 20 21 21 22 22
6 5 6 4 4 4 3 3 3 3 4 5 3 3 4 4 5 5 5 5 5 8 11 11 12 12 12 12 13 14 15 15 17 18 19 20 22 23
6 6 6 5 5 4 4 4 4 4 3 3 4 3 3 3 4 4 5 4 5 6 9 11 12 12 12 13 13 14 14 15 16 17 17 18 19 21
6 6 6 6 7 6 5 5 5 4 4 3 4 3 3 3 2 3 4 3 4 4 5 6 8 10 12 13 13 14 14 15 15 15 16 17 18 19
5 6 6 9 10 8 6 5 5 4 4 4 4 3 3 3 2 2 2 3 4 2 3 3 3 4 5 9 12 13 14 14 15 15 16 16 17 18
6 6 6 8 10 11 12 11 9 7 6 5 4 5 6 4 3 2 2 2 4 3 2 4 2 4 5 5 9 12 13 14 15 15 15 16 16 17
7 6 6 7 8 6 7 9 9 12 12 8 7 8 6 6 4 4 4 4 4 4 2 4 3 4 5 6 11 12 13 14 14 15 15 15 16 16
7 7 7 8 8 8 7 7 7 7 8 8 8 9 9 7 6 6 5 4 4 4 2 3 4 4 4 4 9 13 13 14 14 14 14 14 15 15
8 8 8 8 12 13 8 8 8 7 10 13 12 12 12 12 8 3 3 3 4 4 3 3 4 4 3 4 5 9 11 12 12 12 12 13 13 13
6 7 12 12 13 12 8 7 9 9 7 6 7 8 8 9 11 8 6 5 4 4 4 4 3 2 3 3 2 3 5 8 10 10 11 11 11 8
6 6 7 12 13 13 10 8 11 9 5 5 5 5 5 5 5 6 7 7 7 7 5 3 2 2 3 3 2 2 3 3 4 5 8 11 12 10
8 7 7 12 12 11 8 9 12 8 4 4 5 6 6 6 6 6 7 9 9 10 8 6 4 4 3 3 3 2 3 3 4 4 4 6 9 10
8 11 11 12 11 8 11 12 9 5 5 6 7 8 7 7 5 5 5 6 8 9 9 8 7 6 5 5 4 3 2 3 4 4 4 5 5 5
9 9 11 11 10 9 9 8 6 6 7 8 7 7 5 5 5 5 5 4 4 6 7 8 9 9 7 7 6 5 4 3 3 4 4 4 4 5
5 3 3 4 4 5 5 6 6 6 7 8 7 7 6 6 7 5 5 4 5 5 5 4 6 7 9 7 6 6 5 5 4 5 5 5 5 6
6 4 5 6 7 7 7 7 6 7 8 8 8 8 8 7 7 5 5 6 6 6 6 5 3 2 3 5 9 7 6 6 5 5 5 6 6 5
6 6 7 7 8 8 7 8 8 8 7 7 8 8 8 8 7 7 6 6 7 7 6 5 5 5 6 6 5 9 8 6 5 6 6 5 5 6
7 8 9 8 8 8 8 8 8 7 7 7 8 8 8 8 8 8 7 8 8 7 6 5 6 7 8 7 5 5 11 8 7 7 6 3 2 3
9 9 9 8 8 8 8 8 8 7 7 7 7 8 8 8 8 8 8 10 9 7 7 7 8 10 6 4 4 3 4 8 7 6 6 5 4 4
8 8 8 8 8 7 7 7 7 7 7 7 7 7 7 7 9 10 8 8 8 8 8 6 5 5 5 7 7 6 5 4 3 4 4 3 5 7
7 7 7 7 6 6 6 7 8 7 7 7 6 7 7 7 7 7 8 8 7 8 7 6 5 5 6 7 6 6 7 7 5 4 1 6 2 0
Wind_Direction
253 251 245 249 240 227 206 181 186 280 294 293 308 318 321 310 295 277 264 260 253 243 237 236 236 237 234 229 225 222 219 217 216 215 214 215 216 218
241 246 252 249 252 244 227 205 181 192 250 274 274 288 310 316 308 291 275 272 261 251 243 239 236 236 236 232 226 223 220 218 216 214 213 214 214 215
250 244 251 249 249 251 244 235 220 193 240 271 266 285 300 305 309 298 281 267 265 260 250 243 237 233 233 232 229 227 223 220 218 217 216 215 214 215
241 241 249 251 246 245 241 243 243 227 225 266 281 291 290 291 291 294 286 275 261 263 255 247 238 232 230 229 228 226 224 222 221 220 219 218 218 217
230 230 238 238 245 244 240 241 243 251 228 240 266 270 281 290 305 301 295 289 279 268 256 248 242 236 232 230 228 226 224 223 224 223 222 220 219 219
229 227 230 226 233 238 242 239 237 246 245 245 258 268 274 288 302 306 316 312 296 287 268 255 248 243 238 234 231 228 225 223 223 223 223 223 221 219
234 233 234 236 236 233 234 231 230 233 235 239 254 266 270 284 277 281 294 304 299 295 308 289 267 253 241 238 235 231 227 224 223 223 223 224 222 220
231 240 248 254 255 252 251 245 227 222 224 227 237 241 251 246 248 255 272 315 304 304 332 295 268 261 251 233 234 231 228 225 224 224 224 224 225 223
226 235 250 252 252 249 260 266 258 244 227 217 226 235 240 234 230 249 244 237 244 266 306 285 279 266 256 243 235 232 232 230 226 226 226 226 225 224
226 226 234 249 253 245 248 255 254 252 240 228 224 233 235 233 220 228 236 247 258 263 229 261 274 267 267 252 238 228 228 229 228 227 227 227 226 225
234 231 231 241 250 249 245 249 256 259 254 240 230 234 239 240 230 222 236 241 266 268 225 229 258 267 265 257 247 231 224 224 226 228 229 227 226 222
240 238 237 240 249 250 237 235 247 253 249 252 245 249 247 249 241 219 216 223 236 259 238 212 241 243 273 269 252 232 222 222 224 227 229 228 218 214
236 239 237 238 244 249 240 227 238 242 237 234 242 249 251 247 242 225 216 217 221 233 233 204 233 234 246 283 282 238 218 211 210 221 224 223 216 210
231 234 233 235 239 245 241 233 241 243 232 233 241 247 248 249 246 236 228 226 228 233 230 206 218 222 231 252 265 262 229 214 205 210 208 210 219 223
231 231 229 232 236 243 243 243 242 230 221 232 242 246 242 243 242 243 246 238 239 241 238 215 214 220 216 227 241 235 239 232 209 207 205 204 203 200
232 237 238 241 240 242 247 247 233 222 221 234 241 247 243 236 236 233 239 239 244 256 244 224 216 214 223 227 225 228 213 221 211 205 204 207 202 201
194 207 218 224 231 237 242 242 234 225 228 235 239 245 242 239 240 226 223 224 228 244 254 245 226 219 216 208 219 224 218 219 214 198 202 212 210 204
168 205 222 227 235 241 243 245 237 231 231 230 233 235 237 237 239 228 215 218 230 236 237 236 223 223 239 242 216 218 214 216 209 202 201 211 212 199
187 220 229 234 237 238 238 241 243 238 231 228 231 233 233 233 231 230 223 223 230 233 233 223 207 203 222 240 240 208 203 201 196 205 208 206 209 195
217 226 231 234 234 236 237 239 243 242 233 232 233 233 230 228 229 230 226 224 228 229 231 222 212 209 216 222 222 218 201 194 196 205 201 187 161 144
220 227 232 234 234 234 236 238 239 240 238 232 231 230 227 224 228 229 227 227 224 224 227 229 227 218 215 198 208 219 206 198 191 191 183 178 176 176
228 227 230 232 233 234 236 236 239 242 241 237 234 231 226 221 225 226 224 222 222 223 228 233 223 203 196 206 215 208 192 172 150 123 123 151 180 188
229 230 232 233 235 235 236 238 239 244 243 239 236 233 228 224 224 224 224 222 221 222 222 223 215 204 207 206 207 199 188 179 170 154 89 12 356 104